FENGYUN 1C DEB

Satellite information

Favourite Embed

Satellite Type and Status

DEBRISIN ORBIT

Key statistics

Satellite FENGYUN 1C DEB at a glance.

Uptime

9556

Days in orbit

Revolutions

≈ 14.5

Per day

Orbit

SSO

Sun Synchronous Orbit

Inclination

98.7

Latest

Satellite identification and parameters

Extended collection of information and parameters for FENGYUN 1C DEB.

Object identification

Identified? True

Debris? True

Object name: FENGYUN 1C DEB

International designator: 1999-025DLY

Object number (NORAD): 35144

Object ID (CCSDS): 35144

Country: PEOPLES REPUBLIC OF CHINA (PRC)

Current information (Y/N): Y

RCS size: SMALL

Orbital parameters

Period: 98.99 minutes

Inclination: 98.6963 deg

SMA: 7088.503 km

Apoapsis: 733.466 km

Periapsis: 687.269 km

RAAN: 284.2927 deg

Eccentricy: 0.0032586

Argument of periapsis: 163.2639 deg

Mean anomaly: 196.964 deg

Mean motion: 14.54691844 rev/day

Mean motion (dot): 0.00005531 rev/day2

B* drag term: 0.0012947 1/REarth

Two-line elements (TLE)

Creation date: June 28, 2025, 2:36 p.m.

Reference frame: TEME

Reference center: EARTH

Epoch: June 25, 2025, 5:48 a.m. UTC

TLE line 0: 0 FENGYUN 1C DEB

TLE line 1: 1 35144U 99025DLY 25176.24214436 .00005531 00000-0 12947-2 0 9998

TLE line 2: 2 35144 98.6963 284.2927 0032586 163.2639 196.9640 14.54691844856299

Live tracking on map

Real-time ground track for satellite FENGYUN 1C DEB.

In-orbit conjunctions

A list of the most updated potential collisions computed for object FENGYUN 1C DEB.

Target Orbit TCA Probability of collision Miss distance Type
CZ-6A DEB LEO 2025-03-03 01:46:57 0.0001140444 581.0 (m) DEBRIS

Associated space launch

Chinese polar orbiting meteorological satellite

FENGYUN 1C DEB was lifted into orbit during the mission ‘Long March 4B | Feng Yun 1C’, on board a Long March 4B space rocket.

The launch took place on May 10, 1999, 1:33 a.m. from Launch Complex 7.

For more information about the launch, click the button.

Launch to space Long March 4B | Feng Yun 1C
Long March 4B | Feng Yun 1C

Agency: N/A

Status: Launch Successful

Launch date: May 10, 1999, 1:33 a.m. UTC

Rocket: Long March 4B

Launch pad: Launch Complex 7

Location: Taiyuan Satellite Launch Center, People's Republic of China

...

Latest news about this satellite

There are no fresh news available about this satellite. Check back as we update our databases every day.


Newsletter sign-up

Weekly statistics, charts and insights to help you stay on top of the space industry.